SL-12 DEB, 44560

Orbit data source: Space-Track

SL-12 DEB, 44560 is space debris in HEO originally from a launch on Thu, 02 Sep 2010 UTC launched from the Tyuratam Missile And Space Complex (TTMTR). Debris objects in space refer to the collection of defunct objects orbiting the Earth. Examples of debris include non-operational satellites, rocket bodies, and fragments generated from explosions, collisions, or faulty payload assembly.

Loading next visibility...
Identifier
44560, 2010-041AF
Orbit
HEO
Country
Flag of CISCIS
Related business
Manufacturer
RKKE
Mission
Spacecraft
Bus & Motor
Unknown
Mass
Unknown
Launch date (UTC)
2010-09-02 (16 years ago)
Launch vehicle
Unknown
Launch site
Tyuratam Missile And Space Complex (TTMTR)
Object type
Payload
Rocket body
Debris
Shape & HBR
Unknown shape, 0.7 m
Radar Cross Section
Medium (>0.1 m² and <1 m²)

Expand to show TLE details & history
Last TLE update: 1 week ago

TLE from 1 week ago
0 SL-12 DEB
1 44560U 10041AF  26165.41012654  .00000098  00000-0  47115-3 0  9996
2 44560  65.3246  30.8123 5482926 266.6891  32.5105  4.57486245110551
Epoch: 2026-06-14T09:50Z
TLE epoch observation values (Epoch: 2026-06-14T09:50:34.933Z)
Latitude
-0.00005°
Longitude
-19.52267°
Altitude
4,705.284 km
Speed
6.778 km/s
True Right ascension
02h 03m 20s
True Declination
0° 00' 00"
Sunlit
Object was in daylight at epoch
Visualization orbit readout
Latitude
Unknown
Longitude
Unknown
Altitude
Unknown
Speed
Unknown
Apparent Right ascension
Unknown
Apparent Declination
Unknown
Sunlit
N/A
Visualization observer readout
Local Sidereal Time
21:35:02
Azimuth
Unknown
Elevation
Unknown
Doppler factor
Unknown
Orbital elements
Apogee altitude
17,352.164 km
Perigee altitude
545.072 km
Semi-major axis
15,326.755 km
Eccentricity
0.54829
Inclination
65.3246°
RAAN
30.8123°
Arg. of periapsis
266.6891°
True anomaly
93.36291°
Mean anomaly
32.5105°
Eccentric anomaly
59.60863°
Mean motion
1.14385 °/min
Orbital period
314.73 mins
BSTAR
0.00047115
Loading maneuver chart data...
Computing Atmospheric mass density...
Loading historical data...
Loading historical data...
Loading historical data...
Loading historical data...
Loading historical data...
Loading historical data...
Loading historical data...

Documentation

Showing up to 5 results
|